Le nostre stazioni meteo in Italia

Pubblicità
Il mio iltempo24.it
Roma/Ciampino, Italia (16239): Temperatura & dewpoint: 09.11.2018 08:00:00 - 15.11.2018 08:00:00 (CET)Roma/Ciampino, Italia (16239): velocità del vento: 09.11.2018 08:00:00 - 15.11.2018 08:00:00 (CET)Roma/Ciampino, Italia (16239): direzione del vento: 09.11.2018 08:00:00 - 15.11.2018 08:00:00 (CET)Roma/Ciampino, Italia (16239): reduced air pressure: 09.11.2018 08:00:00 - 15.11.2018 08:00:00 (CET)Roma/Ciampino, Italia (16239): visibility: 09.11.2018 08:00:00 - 15.11.2018 08:00:00 (CET)Roma/Ciampino, Italia (16239): precipitazioni: 09.11.2018 08:00:00 - 15.11.2018 08:00:00 (CET)
Data & Tempo tt [°C] td [°C] ff [km/h] ff [kn] dd ppp [hPa] vv [km] rr [mm]
15.11.2018 08:00:00 8,0 7,0 2 1 - - 7 -
15.11.2018 07:00:00 9,1 7,5 4 2 NNO 1023,1 15 -
15.11.2018 06:00:00 8,0 7,0 9 5 N - 6 -
15.11.2018 05:00:00 8,0 6,0 5 3 N - 6 -
15.11.2018 04:00:00 8,3 7,3 9 5 N 1023,0 6 0,0
15.11.2018 03:00:00 8,0 7,0 2 1 - - 7 -
15.11.2018 02:00:00 9,0 8,0 9 5 NNE - 7 -
15.11.2018 01:00:00 8,3 7,2 9 5 NNE 1023,6 7 -
15.11.2018 00:00:00 11,0 8,0 4 2 NNE - 8 -
14.11.2018 23:00:00 11,0 8,0 5 3 ENE - 10 -
14.11.2018 22:00:00 10,9 8,4 8 4 NE 1024,6 10 0,0
14.11.2018 21:00:00 11,0 9,0 5 3 E - 10 -
14.11.2018 20:00:00 13,0 9,0 9 5 ENE - 10 -
14.11.2018 19:00:00 13,0 9,4 8 4 ENE 1024,3 10 -
14.11.2018 18:00:00 13,0 10,0 5 3 E - 10 -
14.11.2018 17:00:00 - - - - - - - -
14.11.2018 16:00:00 16,5 9,5 8 4 NNE 1024,5 10 0,0
14.11.2018 15:00:00 17,0 9,0 9 5 NNO - 10 -
14.11.2018 14:00:00 16,0 9,0 4 2 - - 10 -
14.11.2018 13:00:00 15,4 9,8 5 3 NNE 1025,9 10 -
14.11.2018 12:00:00 14,0 10,0 9 5 NNO - 10 -
14.11.2018 11:00:00 13,0 9,0 9 5 NNO - 10 -
14.11.2018 10:00:00 11,4 9,0 9 5 N 1027,3 7 0,0
14.11.2018 09:00:00 9,0 7,0 11 6 NNE - 10 -
14.11.2018 08:00:00 6,0 6,0 8 4 NNE - 3,0 -
14.11.2018 07:00:00 7,4 7,0 5 3 N 1026,8 4,0 -
14.11.2018 06:00:00 8,0 7,0 8 4 N - 3,0 -
14.11.2018 05:00:00 9,0 8,0 9 5 NNE - 2,0 -
14.11.2018 04:00:00 9,4 8,3 8 4 NNE 1026,9 4,0 0,0
14.11.2018 03:00:00 10,0 9,0 11 6 NNE - 4,0 -
14.11.2018 02:00:00 10,0 9,0 4 2 - - 5 -
14.11.2018 01:00:00 10,7 9,5 8 4 NE 1027,8 6 -
14.11.2018 00:00:00 11,0 10,0 8 4 NE - 6 -
13.11.2018 23:00:00 12,0 10,0 4 2 - - 8 -
13.11.2018 22:00:00 12,8 10,4 5 3 NE 1028,2 9 0,0
13.11.2018 21:00:00 13,0 10,0 8 4 E - 9 -
13.11.2018 20:00:00 13,0 10,0 5 3 ESE - 8 -
13.11.2018 19:00:00 14,8 11,6 4 2 N 1028,2 8 -
13.11.2018 18:00:00 15,0 12,0 4 2 - - 10 -
13.11.2018 17:00:00 17,0 12,0 5 3 N - 10 -
13.11.2018 16:00:00 18,1 12,2 8 4 NO 1027,8 10 0,0
13.11.2018 15:00:00 18,0 12,0 8 4 NNO - 10 -
13.11.2018 14:00:00 18,0 12,0 5 3 NO - 10 -
13.11.2018 13:00:00 18,1 12,4 9 5 NO 1028,6 10 -
13.11.2018 12:00:00 18,0 11,0 5 3 NO - 10 -
13.11.2018 11:00:00 16,0 12,0 5 3 NO - 10 -
13.11.2018 10:00:00 14,7 11,5 4 2 - 1029,1 10 0,0
13.11.2018 09:00:00 12,0 10,0 4 2 NNE - 10 -
13.11.2018 08:00:00 10,0 9,0 8 4 N - 10 -
13.11.2018 07:00:00 10,2 8,4 4 2 - 1028,1 10 -
13.11.2018 06:00:00 11,0 9,0 8 4 E - 6 -
13.11.2018 05:00:00 10,0 9,0 5 3 NNE - 6 -
13.11.2018 04:00:00 9,9 8,0 2 1 - 1027,8 8 0,0
13.11.2018 03:00:00 - - - - - - - -
13.11.2018 02:00:00 - - - - - - - -
13.11.2018 01:00:00 11,3 9,7 4 2 E 1027,8 8 -
13.11.2018 00:00:00 12,0 10,0 8 4 E - 8 -
12.11.2018 23:00:00 13,0 11,0 9 5 E - 10 -
12.11.2018 22:00:00 12,6 10,5 8 4 - 1027,6 10 0,0
12.11.2018 21:00:00 13,0 11,0 8 4 ESE - 10 -
12.11.2018 20:00:00 13,0 11,0 5 3 E - 10 -
12.11.2018 19:00:00 13,6 11,8 5 3 ESE 1026,9 10 -
12.11.2018 18:00:00 15,0 12,0 5 3 SE - 10 -
12.11.2018 17:00:00 17,0 13,0 4 2 - - 10 -
12.11.2018 16:00:00 18,8 12,4 5 3 OSO 1026,2 10 0,0
12.11.2018 15:00:00 20,0 12,0 4 2 - - 10 -
12.11.2018 14:00:00 20,0 12,0 8 4 O - 10 -
12.11.2018 13:00:00 19,1 12,9 5 3 ONO 1026,5 10 -
12.11.2018 12:00:00 18,0 12,0 8 4 NNO - 10 -
12.11.2018 11:00:00 16,0 11,0 8 4 NO - 10 -
12.11.2018 10:00:00 15,1 10,1 4 2 - 1026,6 10 0,0
12.11.2018 09:00:00 12,0 9,0 4 2 N - 10 -
12.11.2018 08:00:00 9,0 8,0 5 3 N - 10 -
12.11.2018 07:00:00 10,6 7,5 4 2 E 1025,4 15 -
12.11.2018 06:00:00 9,0 7,0 5 3 N - 10 -
12.11.2018 05:00:00 11,0 8,0 8 4 E - 10 -
12.11.2018 04:00:00 11,1 8,5 8 4 E 1024,8 10 0,0
12.11.2018 03:00:00 - - - - - - - -
12.11.2018 02:00:00 11,0 9,0 4 2 - - 10 -
12.11.2018 01:00:00 11,5 9,4 8 4 ESE 1024,5 10 -
12.11.2018 00:00:00 12,0 9,0 9 5 E - 10 -
11.11.2018 23:00:00 12,0 9,0 5 3 E - 10 -
11.11.2018 22:00:00 12,4 9,5 9 5 ESE 1023,6 10 0,0
11.11.2018 21:00:00 12,0 10,0 9 5 ESE - 8 -
11.11.2018 20:00:00 12,0 9,0 8 4 ESE - 10 -
11.11.2018 19:00:00 13,0 10,2 8 4 ESE 1023,0 10 -
11.11.2018 18:00:00 15,0 11,0 4 2 - - 10 -
11.11.2018 17:00:00 18,0 10,0 4 2 O - 10 -
11.11.2018 16:00:00 19,1 9,5 5 3 NO 1021,8 10 0,0
11.11.2018 15:00:00 20,0 9,0 5 3 O - 10 -
11.11.2018 14:00:00 19,0 11,0 5 3 ONO - 10 -
11.11.2018 13:00:00 18,6 11,6 8 4 NO 1021,4 10 -
11.11.2018 12:00:00 18,0 11,0 8 4 NO - 10 -
11.11.2018 11:00:00 17,0 11,0 8 4 NE - 10 -
11.11.2018 10:00:00 13,5 9,1 8 4 N 1021,3 10 0,0
11.11.2018 09:00:00 12,0 9,0 8 4 N - 10 -
11.11.2018 08:00:00 9,0 7,0 8 4 N - 10 -
11.11.2018 07:00:00 10,1 7,2 4 2 E 1019,2 16 -
11.11.2018 06:00:00 - - - - - - - -
11.11.2018 05:00:00 10,0 7,0 4 2 - - 10 -
11.11.2018 04:00:00 8,4 7,3 5 3 N 1018,2 10 0,0
11.11.2018 03:00:00 10,0 8,0 5 3 NNE - 10 -
11.11.2018 02:00:00 9,0 8,0 5 3 N - 10 -
11.11.2018 01:00:00 11,5 8,6 4 2 - 1017,7 10 -
11.11.2018 00:00:00 12,0 9,0 4 2 - - 10 -
10.11.2018 23:00:00 12,0 9,0 4 2 - - 10 -
10.11.2018 22:00:00 12,6 9,8 8 4 E 1017,3 20 0,0
10.11.2018 21:00:00 13,0 10,0 9 5 E - 10 -
10.11.2018 20:00:00 13,0 11,0 8 4 E - 10 -
10.11.2018 19:00:00 13,5 11,3 5 3 E 1016,6 25 -
10.11.2018 18:00:00 15,0 12,0 5 3 SE - 10 -
10.11.2018 17:00:00 18,0 12,0 5 3 OSO - 10 -
10.11.2018 16:00:00 18,8 10,4 4 2 - 1015,3 10 0,0
10.11.2018 15:00:00 19,0 11,0 5 3 O - 10 -
10.11.2018 14:00:00 19,0 11,0 5 3 O - 10 -
10.11.2018 13:00:00 18,3 11,3 5 3 N 1015,8 10 -
10.11.2018 12:00:00 18,0 11,0 8 4 NNO - 10 -
10.11.2018 11:00:00 16,0 11,0 4 2 - - 10 -
10.11.2018 10:00:00 12,9 10,2 4 2 - 1017,2 10 0,0
10.11.2018 09:00:00 13,0 10,0 4 2 - - 10 -
10.11.2018 08:00:00 12,0 9,0 4 2 - - 10 -
10.11.2018 07:00:00 11,7 8,9 8 4 E 1016,2 10 -
10.11.2018 06:00:00 12,0 9,0 11 6 E - 10 -
10.11.2018 05:00:00 12,0 10,0 11 6 E - 10 -
10.11.2018 04:00:00 12,3 9,7 11 6 E 1016,8 10 0,0
10.11.2018 03:00:00 12,0 10,0 4 2 - - 10 -
10.11.2018 02:00:00 13,0 10,0 9 5 ENE - 10 -
10.11.2018 01:00:00 13,1 10,3 9 5 E 1017,7 10 -
10.11.2018 00:00:00 13,0 10,0 8 4 E - 10 -
09.11.2018 23:00:00 13,0 10,0 5 3 ESE - 10 -
09.11.2018 22:00:00 13,7 10,6 4 2 - 1018,0 10 0,0
09.11.2018 21:00:00 15,0 11,0 8 4 E - 10 -
09.11.2018 20:00:00 14,0 11,0 8 4 ESE - 10 -
09.11.2018 19:00:00 14,9 12,1 5 3 NE 1018,3 10 -
09.11.2018 18:00:00 16,0 12,0 5 3 S - 10 -
09.11.2018 17:00:00 17,0 12,0 8 4 SSO - 10 -
09.11.2018 16:00:00 18,2 12,2 11 6 S 1017,7 10 0,0
09.11.2018 15:00:00 19,0 11,0 13 7 S - 10 -
09.11.2018 14:00:00 19,0 12,0 5 3 O - 10 -
09.11.2018 13:00:00 18,2 12,3 8 4 N 1018,4 10 -
09.11.2018 12:00:00 18,0 12,0 4 2 - - 10 -
09.11.2018 11:00:00 17,0 11,0 4 2 - - 10 -
09.11.2018 10:00:00 15,0 10,9 5 3 NO 1020,4 10 0,0
09.11.2018 09:00:00 14,0 11,0 2 1 - - 10 -
09.11.2018 08:00:00 12,0 9,0 9 5 E - 10 -

tt = Temperatura
td = dewpoint
ff = velocità del vento
dd = direzione del vento
ppp = reduced air pressure
vv = visibility
rr = precipitazioni

Stazioni seguenti

WeatherPro
AMSI
MeteoEarth